Location: Middelsbur
(53.6609°N, 7.5020°E)
Time: 23:49:05
(UTC+00:00)

Cosmos 2369 Rocket - Pass Details

Date: 06 July 2020
Orbit: 829 x 852 km, 71.0° (Epoch: 14 August)

Event Time Altitude Azimuth Distance (km) Brightness Sun altitude
Rises 23:20:27 0° 327° (NNW) 3,385 6.5 -13.7°
Reaches altitude 10° 23:22:54 10° 327° (NNW) 2,448 5.6 -13.7°
Maximum altitude 23:28:31 87° 242° (WSW) 840 2.2 -13.8°
Enters shadow 23:33:06 16° 151° (SSE) 2,053 3.7 -13.8°
